OK1KZE-6 Weather Reports


Display with metric or nautical units.
time (UTC)temp
F
wind
direction
speed
MPH
gust
MPH
rain 1hr
in
rain 24hr
in
rain mn
in
humidity
%
barometer
mb
20260510075508 55 109 1.0 2.0 0.00 0.00 0.00 67 1017.4
20260510075007 56 108 4.0 4.0 0.00 0.00 0.00 69 1017.1
20260510074507 54 84 6.0 7.0 0.00 0.00 0.00 69 1017.1
20260510074008 54 58 4.0 5.0 0.00 0.00 0.00 69 1017.2
20260510073508 54 61 5.0 6.0 0.00 0.00 0.00 69 1017.3
20260510073007 55 30 5.0 5.0 0.00 0.00 0.00 68 1017.2
20260510072508 54 89 6.0 7.0 0.00 0.00 0.00 69 1017.4
20260510072007 53 72 8.0 8.0 0.00 0.00 0.00 69 1017.3
20260510071509 53 76 2.0 4.0 0.00 0.00 0.00 70 1017.4
20260510071007 54 79 6.0 7.0 0.00 0.00 0.00 69 1017.5
20260510070507 53 130 5.0 5.0 0.00 0.00 0.00 72 1017.3
20260510070008 53 117 4.0 6.0 0.00 0.00 0.00 71 1017.5
20260510065508 52 171 4.0 5.0 0.00 0.00 0.00 70 1017.6
20260510065007 52 180 5.0 5.0 0.00 0.00 0.00 70 1017.7
20260510064507 52 178 4.0 6.0 0.00 0.00 0.00 70 1017.8
20260510064007 51 178 2.0 5.0 0.00 0.00 0.00 73 1017.5
20260510063508 51 157 4.0 5.0 0.00 0.00 0.00 73 1017.7
20260510063008 50 169 4.0 7.0 0.00 0.00 0.00 75 1017.8
20260510062508 52 160 5.0 6.0 0.00 0.00 0.00 75 1017.8
20260510062007 51 147 5.0 6.0 0.00 0.00 0.00 74 1018.0
20260510061006 50 156 3.0 4.0 0.00 0.00 0.00 77 1017.8
20260510060508 50 138 4.0 4.0 0.00 0.00 0.00 75 1017.7
20260510060008 51 157 1.0 3.0 0.00 0.00 0.00 76 1017.9
20260510055508 50 153 2.0 2.0 0.00 0.00 0.00 78 1017.9
20260510055007 50 153 2.0 3.0 0.00 0.00 0.00 79 1017.9
20260510054508 49 145 2.0 4.0 0.00 0.00 0.00 79 1018.3
20260510054007 48 156 2.0 4.0 0.00 0.00 0.00 81 1018.0
20260510053508 48 175 5.0 5.0 0.00 0.00 0.00 81 1018.1
20260510053007 48 167 2.0 3.0 0.00 0.00 0.00 81 1018.2
20260510052508 48 213 1.0 1.0 0.00 0.00 0.00 82 1018.2
20260510051508 46 186 3.0 4.0 0.00 0.00 0.00 85 1018.1
20260510050508 45 167 9.0 10.0 0.00 0.00 0.00 85 1018.0
20260510050009 45 165 7.0 7.0 0.00 0.00 0.00 85 1018.1
20260510045507 44 168 6.0 6.0 0.00 0.00 0.00 87 1018.2
20260510045008 44 166 8.0 9.0 0.00 0.00 0.00 87 1018.2
20260510044507 44 174 8.0 9.0 0.00 0.00 0.00 87 1018.4
20260510044008 44 174 7.0 8.0 0.00 0.00 0.00 86 1018.2
20260510043507 44 169 8.0 8.0 0.00 0.00 0.00 85 1018.3
20260510043007 44 176 7.0 9.0 0.00 0.00 0.00 86 1018.5
20260510042507 44 162 7.0 8.0 0.00 0.00 0.00 86 1018.3
20260510042007 45 161 9.0 9.0 0.00 0.00 0.00 85 1018.3
20260510041507 46 162 9.0 9.0 0.00 0.00 0.00 83 1018.2
20260510041007 44 171 7.0 8.0 0.00 0.00 0.00 86 1018.4
20260510040508 45 180 7.0 7.0 0.00 0.00 0.00 85 1018.4
20260510040007 46 177 8.0 9.0 0.00 0.00 0.00 83 1018.2
20260510035507 46 171 7.0 8.0 0.00 0.00 0.00 82 1018.4
20260510035008 46 176 6.0 6.0 0.00 0.00 0.00 83 1018.3
20260510034508 46 198 6.0 6.0 0.00 0.00 0.00 82 1018.3
20260510034007 47 193 5.0 6.0 0.00 0.00 0.00 80 1018.1
20260510033508 47 170 7.0 7.0 0.00 0.00 0.00 80 1018.1
20260510033007 46 171 7.0 7.0 0.00 0.00 0.00 81 1018.1
20260510032508 46 165 5.0 6.0 0.00 0.00 0.00 82 1018.0
20260510032007 46 171 6.0 6.0 0.00 0.00 0.00 82 1018.0
20260510031507 46 150 5.0 5.0 0.00 0.00 0.00 81 1017.8
20260510031009 46 147 5.0 5.0 0.00 0.00 0.00 82 1017.9
20260510030507 46 146 5.0 5.0 0.00 0.00 0.00 82 1018.0
20260510030008 46 162 5.0 5.0 0.00 0.00 0.00 82 1018.0
20260510025508 46 159 5.0 5.0 0.00 0.00 0.00 81 1017.9
20260510025008 46 159 5.0 5.0 0.00 0.00 0.00 81 1018.0
20260510024507 47 164 4.0 5.0 0.00 0.00 0.00 80 1017.8
20260510024007 47 151 4.0 4.0 0.00 0.00 0.00 80 1017.5
20260510023508 47 132 4.0 4.0 0.00 0.00 0.00 79 1017.8
20260510023008 47 91 5.0 5.0 0.00 0.00 0.00 79 1017.6
20260510022507 48 115 4.0 4.0 0.00 0.00 0.00 78 1017.6
20260510022007 47 117 2.0 2.0 0.00 0.00 0.00 79 1017.8
20260510021508 47 105 1.0 2.0 0.00 0.00 0.00 78 1017.9
20260510021006 48 127 1.0 1.0 0.00 0.00 0.00 78 1018.0
20260510020507 48 174 1.0 2.0 0.00 0.00 0.00 78 1018.2
20260510020007 48 144 3.0 3.0 0.00 0.00 0.00 77 1018.2
20260510015507 48 105 3.0 3.0 0.00 0.00 0.00 78 1018.0
20260510015007 48 105 4.0 4.0 0.00 0.00 0.00 77 1018.3
20260510014508 48 109 2.0 2.0 0.00 0.00 0.00 77 1018.4
20260510014007 48 109 1.0 1.0 0.00 0.00 0.00 77 1018.4
20260510013508 48 112 2.0 2.0 0.00 0.00 0.00 77 1018.4
20260510013008 48 104 4.0 4.0 0.00 0.00 0.00 76 1018.5
20260510012508 49 111 3.0 4.0 0.00 0.00 0.00 76 1018.5
20260510012007 49 107 4.0 4.0 0.00 0.00 0.00 76 1018.8
20260510011507 49 131 2.0 3.0 0.00 0.00 0.00 76 1018.7
20260510010508 48 140 1.0 1.0 0.00 0.00 0.00 77 1018.8
20260510010007 49 89 0.0 0.0 0.00 0.00 0.00 76 1018.9
20260510005507 49 346 0.0 0.0 0.00 0.00 0.00 75 1019.3
20260510005007 50 89 2.0 2.0 0.00 0.00 0.00 74 1019.3
20260510004508 49 94 2.0 2.0 0.00 0.00 0.00 75 1019.3
20260510004008 49 124 2.0 2.0 0.00 0.00 0.00 75 1019.2
20260510003508 49 168 2.0 2.0 0.00 0.00 0.00 76 1019.3
20260510003007 49 216 4.0 4.0 0.00 0.00 0.00 75 1019.4
20260510002507 49 230 2.0 3.0 0.00 0.00 0.00 74 1019.4
20260510002007 49 214 2.0 2.0 0.00 0.00 0.00 75 1019.5
20260510001508 49 231 2.0 2.0 0.00 0.00 0.00 76 1019.5
20260510001007 48 238 5.0 6.0 0.00 0.00 0.00 77 1019.6
20260510000507 49 245 7.0 8.0 0.00 0.00 0.00 76 1019.7
20260510000008 49 216 6.0 6.0 0.00 0.00 0.00 76 1019.6
20260509235507 48 218 7.0 8.0 0.00 0.00 0.00 77 1019.9
20260509235007 49 203 5.0 7.0 0.00 0.00 0.00 74 1019.9
20260509234507 49 178 8.0 8.0 0.00 0.00 0.00 74 1019.8
20260509234007 49 181 6.0 6.0 0.00 0.00 0.00 74 1019.8
20260509233508 50 218 4.0 4.0 0.00 0.00 0.00 73 1019.9
20260509233007 49 164 5.0 6.0 0.00 0.00 0.00 73 1019.7
20260509232508 49 161 8.0 8.0 0.00 0.00 0.00 74 1019.7
20260509232007 49 152 9.0 10.0 0.00 0.00 0.00 74 1019.7
20260509231508 49 140 11.0 12.0 0.00 0.00 0.00 73 1019.6
20260509231007 49 132 14.0 15.0 0.00 0.00 0.00 73 1019.7
20260509230507 50 148 12.0 17.0 0.00 0.00 0.00 72 1019.7
20260509230007 50 141 12.0 14.0 0.00 0.00 0.00 72 1020.0
20260509225508 50 141 12.0 13.0 0.00 0.00 0.00 72 1019.8
20260509225007 50 142 11.0 12.0 0.00 0.00 0.00 72 1019.8
20260509224508 50 136 14.0 15.0 0.00 0.00 0.00 72 1019.8
20260509224008 50 135 15.0 17.0 0.00 0.00 0.00 72 1019.8
20260509223508 50 123 13.0 15.0 0.00 0.00 0.00 71 1019.5
20260509223008 50 132 14.0 14.0 0.00 0.00 0.00 71 1019.7
20260509222507 50 125 12.0 15.0 0.00 0.00 0.00 72 1019.6
20260509222008 50 114 13.0 16.0 0.00 0.00 0.00 71 1019.4
20260509221507 50 113 14.0 16.0 0.00 0.00 0.00 71 1019.6
20260509221008 50 114 13.0 16.0 0.00 0.00 0.00 71 1019.6
20260509220507 50 112 13.0 14.0 0.00 0.00 0.00 71 1019.5
20260509215508 50 110 13.0 15.0 0.00 0.00 0.00 71 1019.6
20260509215007 50 110 13.0 15.0 0.00 0.00 0.00 71 1019.5
20260509214508 50 109 13.0 14.0 0.00 0.00 0.00 70 1019.8
20260509214007 50 105 13.0 14.0 0.00 0.00 0.00 70 1019.7
20260509213507 51 108 12.0 14.0 0.00 0.00 0.00 70 1019.8
20260509213008 51 107 12.0 13.0 0.00 0.00 0.00 70 1019.9
20260509212508 51 109 12.0 14.0 0.00 0.00 0.00 70 1020.1
20260509212007 51 112 12.0 12.0 0.00 0.00 0.00 70 1019.8
20260509211507 51 104 13.0 14.0 0.00 0.00 0.00 70 1019.7
20260509211008 51 107 13.0 14.0 0.00 0.00 0.00 70 1019.8
20260509210508 51 110 12.0 13.0 0.00 0.00 0.00 71 1020.0
20260509210008 51 108 12.0 14.0 0.00 0.00 0.00 71 1020.0
20260509205508 51 109 13.0 14.0 0.00 0.00 0.00 72 1019.8
20260509205008 51 107 12.0 13.0 0.00 0.00 0.00 72 1020.1
20260509204507 51 106 12.0 14.0 0.00 0.00 0.00 73 1020.1
20260509204007 51 106 12.0 13.0 0.00 0.00 0.00 73 1020.1
20260509203508 51 111 13.0 14.0 0.00 0.00 0.00 74 1020.0
20260509203008 51 107 14.0 15.0 0.00 0.00 0.00 74 1020.0
20260509202508 51 102 14.0 16.0 0.00 0.00 0.00 74 1020.1
20260509202007 51 93 16.0 17.0 0.00 0.00 0.00 73 1019.9
20260509201508 52 99 12.0 15.0 0.00 0.00 0.00 73 1020.0
20260509201008 52 103 15.0 16.0 0.00 0.00 0.00 73 1020.0
20260509200508 52 101 12.0 14.0 0.00 0.00 0.00 73 1020.2
20260509200007 52 99 13.0 14.0 0.00 0.00 0.00 74 1020.1
20260509195507 52 91 14.0 14.0 0.00 0.00 0.00 73 1020.3
20260509195008 52 93 13.0 14.0 0.00 0.00 0.00 73 1020.0
20260509194508 52 93 12.0 14.0 0.00 0.00 0.00 73 1019.8
20260509194007 52 88 14.0 14.0 0.00 0.00 0.00 72 1019.9
20260509193508 53 85 12.0 14.0 0.00 0.00 0.00 72 1019.9
20260509193008 53 88 13.0 14.0 0.00 0.00 0.00 73 1020.1
20260509192507 53 86 13.0 13.0 0.00 0.00 0.00 73 1020.0
20260509192007 53 87 12.0 13.0 0.00 0.00 0.00 73 1020.1
20260509191507 53 85 13.0 14.0 0.00 0.00 0.00 73 1019.7
20260509191008 53 85 12.0 13.0 0.00 0.00 0.00 73 1019.9
20260509190508 53 82 13.0 13.0 0.00 0.00 0.00 72 1019.9
20260509190008 53 77 12.0 14.0 0.00 0.00 0.00 72 1019.9
20260509185508 53 85 12.0 15.0 0.00 0.00 0.00 72 1020.0
20260509185008 53 80 11.0 13.0 0.00 0.00 0.00 72 1019.8
20260509184508 54 88 14.0 15.0 0.00 0.00 0.00 71 1019.9
20260509184007 54 84 13.0 14.0 0.00 0.00 0.00 71 1020.1
20260509183507 54 82 14.0 16.0 0.00 0.00 0.00 70 1020.1
20260509183008 54 76 13.0 15.0 0.00 0.00 0.00 70 1019.9
20260509182508 54 73 16.0 16.0 0.00 0.00 0.00 70 1020.1
20260509182007 54 63 8.0 12.0 0.00 0.00 0.00 70 1019.9
20260509181507 55 76 11.0 11.0 0.00 0.00 0.00 69 1019.7
20260509181006 55 64 13.0 17.0 0.00 0.00 0.00 69 1020.0
20260509180508 55 67 10.0 16.0 0.00 0.00 0.00 68 1019.9
20260509180007 55 70 11.0 14.0 0.00 0.00 0.00 67 1019.9
20260509175507 55 78 13.0 16.0 0.00 0.00 0.00 66 1020.0
20260509175009 56 65 12.0 16.0 0.00 0.00 0.00 65 1020.0
20260509174508 56 66 9.0 14.0 0.00 0.00 0.00 65 1019.9
20260509174008 56 67 11.0 13.0 0.00 0.00 0.00 65 1019.9
20260509173508 56 75 9.0 13.0 0.00 0.00 0.00 65 1019.7
20260509173008 56 70 12.0 13.0 0.00 0.00 0.00 65 1020.0
20260509172507 56 61 5.0 11.0 0.00 0.00 0.00 65 1020.0
20260509172007 56 63 10.0 16.0 0.00 0.00 0.00 64 1020.0
20260509171507 57 64 12.0 12.0 0.00 0.00 0.00 64 1020.0
20260509171008 57 63 13.0 16.0 0.00 0.00 0.00 64 1019.9
20260509170508 57 74 14.0 14.0 0.00 0.00 0.00 63 1019.9
20260509170008 57 80 11.0 16.0 0.00 0.00 0.00 63 1020.2
20260509165508 57 80 13.0 17.0 0.00 0.00 0.00 63 1019.9
20260509165007 57 77 13.0 14.0 0.00 0.00 0.00 62 1020.1
20260509164507 58 85 8.0 9.0 0.00 0.00 0.00 62 1020.1
20260509164008 58 60 10.0 11.0 0.00 0.00 0.00 61 1020.2
20260509163507 57 77 10.0 13.0 0.00 0.00 0.00 61 1020.2
20260509163008 58 53 7.0 8.0 0.00 0.00 0.00 62 1020.1
20260509162507 58 57 13.0 14.0 0.00 0.00 0.00 62 1020.2
20260509162007 58 59 8.0 10.0 0.00 0.00 0.00 61 1020.2
20260509161507 58 59 8.0 8.0 0.00 0.00 0.00 61 1020.4
20260509161007 58 65 10.0 14.0 0.00 0.00 0.00 61 1020.3
20260509160507 58 58 8.0 10.0 0.00 0.00 0.00 61 1020.3
20260509160008 58 53 10.0 12.0 0.00 0.00 0.00 60 1020.3
20260509155507 58 66 10.0 15.0 0.00 0.00 0.00 60 1020.5
20260509155008 58 42 14.0 15.0 0.00 0.00 0.00 61 1020.4
20260509154508 58 63 6.0 7.0 0.00 0.00 0.00 61 1020.4
20260509154008 58 91 5.0 8.0 0.00 0.00 0.00 61 1020.5
20260509153507 58 62 7.0 7.0 0.00 0.00 0.00 61 1020.5
20260509153008 58 85 8.0 9.0 0.00 0.00 0.00 61 1020.4
20260509152508 59 78 9.0 12.0 0.00 0.00 0.00 60 1020.3
20260509152008 59 74 8.0 13.0 0.00 0.00 0.00 60 1020.3
20260509151509 58 53 6.0 9.0 0.00 0.00 0.00 61 1020.3
20260509151007 58 28 2.0 6.0 0.00 0.00 0.00 62 1020.5
20260509150509 58 41 10.0 14.0 0.00 0.00 0.00 61 1020.5
20260509150008 58 55 6.0 8.0 0.00 0.00 0.00 61 1020.5
20260509145008 58 33 13.0 13.0 0.00 0.00 0.00 59 1020.4
20260509144508 59 78 11.0 14.0 0.00 0.00 0.00 59 1020.5
20260509144007 59 50 6.0 7.0 0.00 0.00 0.00 57 1020.5
20260509143508 60 38 5.0 8.0 0.00 0.00 0.00 58 1020.5
20260509143007 58 63 4.0 5.0 0.00 0.00 0.00 60 1020.6
20260509142507 58 41 5.0 6.0 0.00 0.00 0.00 60 1020.6
20260509142008 58 18 10.0 12.0 0.00 0.00 0.00 60 1020.6
20260509141508 60 71 13.0 16.0 0.00 0.00 0.00 61 1020.6
20260509140508 59 69 2.0 5.0 0.00 0.00 0.00 59 1020.7
20260509140009 60 59 9.0 10.0 0.00 0.00 0.00 59 1020.7
20260509135508 58 29 7.0 12.0 0.00 0.00 0.00 60 1020.6
20260509135007 57 93 5.0 6.0 0.00 0.00 0.00 63 1020.7
20260509134508 58 359 3.0 7.0 0.00 0.00 0.00 62 1020.8
20260509134007 58 89 10.0 11.0 0.00 0.00 0.00 62 1020.9
20260509133508 58 82 7.0 12.0 0.00 0.00 0.00 65 1020.6
20260509133007 58 57 10.0 11.0 0.00 0.00 0.00 63 1020.9
20260509132508 57 81 7.0 8.0 0.00 0.00 0.00 63 1020.9
20260509132007 57 49 10.0 11.0 0.00 0.00 0.00 63 1021.1
20260509131507 58 83 4.0 9.0 0.00 0.00 0.00 64 1020.9
20260509131008 57 6 4.0 4.0 0.00 0.00 0.00 64 1021.1
20260509130508 58 82 5.0 6.0 0.00 0.00 0.00 62 1021.1
20260509130009 57 82 10.0 12.0 0.00 0.00 0.00 64 1021.2
20260509125507 58 85 8.0 9.0 0.00 0.00 0.00 64 1021.1
20260509125008 59 74 2.0 4.0 0.00 0.00 0.00 62 1021.3
20260509124508 57 59 13.0 14.0 0.00 0.00 0.00 63 1021.3
20260509124007 57 55 13.0 14.0 0.00 0.00 0.00 64 1021.3
20260509123508 57 41 4.0 8.0 0.00 0.00 0.00 65 1021.4
20260509123008 57 56 5.0 8.0 0.00 0.00 0.00 65 1021.2
20260509122508 57 346 2.0 4.0 0.00 0.00 0.00 66 1021.4
20260509122006 56 3 5.0 6.0 0.00 0.00 0.00 65 1021.6
20260509121507 57 69 10.0 12.0 0.00 0.00 0.00 65 1021.4
20260509121007 57 40 6.0 8.0 0.00 0.00 0.00 62 1021.3
20260509120508 58 347 4.0 4.0 0.00 0.00 0.00 63 1021.2
20260509120008 58 6 10.0 11.0 0.00 0.00 0.00 62 1021.4
20260509115508 58 14 6.0 13.0 0.00 0.00 0.00 62 1021.4
20260509115007 58 9 6.0 7.0 0.00 0.00 0.00 63 1021.5
20260509114509 57 64 8.0 10.0 0.00 0.00 0.00 62 1021.6
20260509114008 56 38 3.0 4.0 0.00 0.00 0.00 64 1021.8
20260509113508 57 60 11.0 12.0 0.00 0.00 0.00 65 1021.6
20260509113007 58 99 7.0 8.0 0.00 0.00 0.00 63 1021.5
20260509112508 57 354 4.0 4.0 0.00 0.00 0.00 63 1021.6
20260509112007 57 17 4.0 7.0 0.00 0.00 0.00 64 1021.8
20260509111508 57 112 7.0 10.0 0.00 0.00 0.00 66 1021.6
20260509111006 57 29 4.0 6.0 0.00 0.00 0.00 65 1021.6
20260509110507 57 7 2.0 2.0 0.00 0.00 0.00 63 1021.9
20260509110008 56 340 2.0 8.0 0.00 0.00 0.00 66 1021.6
20260509105508 57 64 3.0 4.0 0.00 0.00 0.00 65 1021.7
20260509105007 57 305 2.0 2.0 0.00 0.00 0.00 67 1021.9
20260509104508 55 37 7.0 8.0 0.00 0.00 0.00 67 1021.8
20260509104008 56 30 2.0 4.0 0.00 0.00 0.00 67 1021.9
20260509103508 55 152 1.0 2.0 0.00 0.00 0.00 66 1021.8
20260509103007 55 134 4.0 4.0 0.00 0.00 0.00 66 1021.8
20260509102508 55 111 4.0 5.0 0.00 0.00 0.00 69 1021.7
20260509102007 56 100 4.0 4.0 0.00 0.00 0.00 69 1021.6
20260509101508 55 98 2.0 4.0 0.00 0.00 0.00 67 1021.7
20260509101006 55 62 2.0 3.0 0.00 0.00 0.00 69 1021.8
20260509100507 55 128 3.0 5.0 0.00 0.00 0.00 69 1021.8
20260509100008 55 68 2.0 4.0 0.00 0.00 0.00 69 1021.9
20260509095507 55 47 8.0 10.0 0.00 0.00 0.00 69 1022.0
20260509095007 55 86 3.0 4.0 0.00 0.00 0.00 70 1021.9
20260509094508 55 20 3.0 5.0 0.00 0.00 0.00 69 1021.9
20260509094007 55 0 2.0 2.0 0.00 0.00 0.00 69 1021.9
20260509093508 55 15 2.0 5.0 0.00 0.00 0.00 73 1021.6
20260509093007 56 122 3.0 3.0 0.00 0.00 0.00 73 1021.6
20260509092507 55 320 2.0 4.0 0.00 0.00 0.00 72 1021.7
20260509092008 54 46 6.0 8.0 0.00 0.00 0.00 74 1021.7
20260509091507 54 359 3.0 5.0 0.00 0.00 0.00 72 1021.8
20260509091006 54 39 2.0 2.0 0.00 0.00 0.00 71 1021.8
20260509090507 54 0 3.0 3.0 0.00 0.00 0.00 73 1022.0
20260509090007 54 49 3.0 5.0 0.00 0.00 0.00 74 1021.9
20260509085008 55 341 4.0 5.0 0.00 0.00 0.00 75 1021.7
20260509084507 54 342 2.0 2.0 0.00 0.00 0.00 75 1021.7
20260509084008 54 0 4.0 6.0 0.00 0.00 0.00 76 1022.0
20260509083507 54 79 4.0 4.0 0.00 0.00 0.00 77 1021.7
20260509083008 53 119 4.0 5.0 0.00 0.00 0.00 79 1021.8
20260509082506 54 188 1.0 1.0 0.00 0.00 0.00 79 1021.8
20260509082008 52 104 3.0 3.0 0.00 0.00 0.00 81 1021.8
20260509081508 52 76 8.0 9.0 0.00 0.00 0.00 80 1021.7
20260509081007 53 8 4.0 5.0 0.00 0.00 0.00 79 1021.8
20260509080508 53 71 2.0 3.0 0.00 0.00 0.00 81 1021.9
20260509080008 52 62 4.0 4.0 0.00 0.00 0.00 81 1021.9